Regional Weather Roundup
Issued by NWS

Home | Current Version | Previous Version | Graphics & Text | Print | Product List | Glossary On
Versions: 1 2 3 4 5 6 7 8 9 10 11 12 13 14 15 16 17 18 19 20 21 22 23 24 25 26 27 28 29 30 31 32 33 34 35 36 37 38 39 40 41 42 43 44 45 46 47 48 49 50
000
ASUS45 KCYS 280310
RWRWY

WYOMING REGIONAL WEATHER ROUNDUP
NATIONAL WEATHER SERVICE CHEYENNE WY
900 PM MDT FRI MAR 27 2015

NOTE:  "FAIR" INDICATES FEW OR NO CLOUDS BELOW 12,000 FEET
WITH NO SIGNIFICANT WEATHER AND/OR OBSTRUCTIONS TO VISIBILITY.

WYZ001-280400-
YELLOWSTONE NATIONAL PARK

CITY           SKY/WX    TMP DP  RH WIND       PRES   REMARKS
LK YELLOWSTONE   N/A     33  27  78 NW3       30.26R
W YELLOWSTONE  NOT AVBL

$$
WYZ002>013-054>058-071-098>099-280400-
NORTHERN WYOMING

CITY           SKY/WX    TMP DP  RH WIND       PRES   REMARKS
JACKSON        FAIR      48  32  53 CALM      30.20R
CODY           MOCLDY    63  28  27 W9        30.06R
GREYBULL       FAIR      56  29  35 SW5       29.99R
WORLAND        FAIR      54  32  43 SE9       30.01R
SHERIDAN       FAIR      59  28  30 W14       29.97S
BUFFALO        FAIR      50  27  40 SW7       30.03S
GILLETTE       FAIR      42  34  73 S7        29.99S
HULETT         FAIR      55  30  38 CALM      30.00R
NEWCASTLE      FAIR      50  30  46 N8        30.00S

$$
WYZ014>020-022>026-101>103-280400-
CENTRAL WYOMING

CITY           SKY/WX    TMP DP  RH WIND       PRES   REMARKS
BIG PINEY      FAIR      46  25  43 N12       30.24R
PINEDALE       FAIR      39  30  70 W9        30.25R WCI  33
DUBOIS         FAIR      43  28  56 NW9       30.20S
LANDER         FAIR      55  23  28 W12       30.11R
RIVERTON       FAIR      57  26  30 NW13      30.10R
CASPER         FAIR      41  26  55 SW5       30.09R
DOUGLAS        FAIR      49  26  41 NW7       30.06R

$$
WYZ021-027>030-104>119-280400-
SOUTHERN WYOMING

CITY           SKY/WX    TMP DP  RH WIND       PRES   REMARKS
EVANSTON       FAIR      48  28  46 W10       30.26R
KEMMERER       FAIR      46  30  53 W5        30.26S
FORT BRIDGER   FAIR      50  28  42 SW9       30.29R
ROCK SPRINGS   FAIR      54  24  31 W13       30.22R
DIXON          FAIR      45  27  50 NE5       30.23R
RAWLINS        FAIR      46  22  38 NW8       30.17R
SARATOGA       MOCLDY    52  23  32 SW12      30.20R
LARAMIE        MOCLDY    44  23  43 W5        30.19R
CHEYENNE       MOCLDY    54  23  30 NW5       30.13R
TORRINGTON     FAIR      55  26  32 W6        30.02R
PINE BLUFFS    FAIR      41  27  56 W7        30.09R

$$



USA.gov is the U.S. government's official web portal to all federal, state and local government web resources and services.